Regional Weather Roundup
Issued by NWS

Home | Current Version | Previous Version | Graphics & Text | Print | Product List | Glossary On
Versions: 1 2 3 4 5 6 7 8 9 10 11 12 13 14 15 16 17 18 19 20 21 22 23 24 25 26 27 28 29 30 31 32 33 34 35 36 37 38 39 40 41 42 43 44 45 46 47 48
000
ASUS45 KBOI 150810
RWRID
WEATHER ROUNDUP FOR IDAHO
NATIONAL WEATHER SERVICE BOISE ID
200 AM MDT MON SEP 15 2014

NOTE: "FAIR" INDICATES FEW OR NO CLOUDS BELOW 12000 FEET
WITH NO SIGNIFICANT WEATHER AND/OR OBSTRUCTIONS TO VISIBILITY

IDZ012-014-150900-
SOUTHWEST IDAHO


CITY           SKY/WX    TMP DP  RH WIND       PRES   REMARKS
BOISE          CLEAR     63  33  32 SE6       29.97R
CALDWELL       CLEAR     54  36  50 CALM      29.98R
MOUNTAIN HOME  CLEAR     58  33  39 S6        29.98R
$$

IDZ016-017-150900-
SOUTHCENTRAL IDAHO


CITY           SKY/WX    TMP DP  RH WIND       PRES   REMARKS
BURLEY         CLEAR     53  42  66 SW3       30.05R
JEROME         CLEAR     56  41  57 E8        30.05R
TWIN FALLS     CLEAR     64  32  30 S12       30.05R
$$

IDZ019>023-150900-
SOUTHEAST IDAHO


CITY           SKY/WX    TMP DP  RH WIND       PRES   REMARKS
IDAHO FALLS    CLEAR     54  37  52 SE7       30.09R
POCATELLO      CLEAR     51  34  52 N6        30.09R
REXBURG        CLEAR     48  35  60 NE3       30.11R
$$

IDZ006-010-011-018-031-032-150900-
CENTRAL IDAHO MOUNTAINS


CITY           SKY/WX    TMP DP  RH WIND       PRES   REMARKS
MCCALL         CLEAR     47  29  49 CALM      30.11R
HAILEY         CLEAR     54  32  43 NW9       30.15R
STANLEY          N/A     39  24  55 CALM      30.22R
SALMON         CLEAR     45  30  57 CALM      30.10R
CHALLIS        CLEAR     53  26  35 CALM      30.13R
$$

IDZ002-004-006-007-026-150900-
NORTHERN IDAHO


CITY           SKY/WX    TMP DP  RH WIND       PRES   REMARKS
LEWISTON       CLEAR     60  29  30 SE3       29.97R
LOWELL           N/A     48  43  82 N5        30.06R
COEUR D`ALENE  CLEAR     54  39  58 NE9       30.01R
MULLAN PASS    CLEAR     52  27  38 SE9       30.15F
$$



USA.gov is the U.S. government's official web portal to all federal, state and local government web resources and services.